When you browse on this site, cookies collect data to enhance your experience and personalize the content and advertising you see.
Visit our Privacy Policy to learn more. By continuing to use the site, you agree to this use of cookies and data.
  • En España
  • Lista de países
  • Para 7 días
  • Temperatura del agua
  • Mapa Satelital
  • El tiempo en el mapa
  • Informadores
  • user-avatar
    Iniciar sesión

    Tiempo cada hora Calmeca

    Hoy, 17 Diciembre, Lunes

    Tiempo Temperatura Precipitaciones Viento Presión Humedad
    00:00 +16°C° 0 mm 1 mps 650 mmHg 58%
    01:00 +16°C° 0 mm 1 mps 650 mmHg 60%
    02:00 +15°C° 0 mm 1 mps 650 mmHg 62%
    03:00 +15°C° 0 mm 1 mps 650 mmHg 63%
    04:00 +15°C° 0 mm 1 mps 650 mmHg 64%
    05:00 +14°C° 0 mm 1 mps 650 mmHg 64%
    06:00 +16°C° 0 mm 1 mps 651 mmHg 60%
    07:00 +17°C° 0 mm 0 mps 651 mmHg 55%
    08:00 +18°C° 0 mm 0 mps 652 mmHg 51%
    09:00 +22°C° 0 mm 1 mps 652 mmHg 46%
    10:00 +24°C° 0 mm 1 mps 653 mmHg 40%
    11:00 +27°C° 0 mm 1 mps 653 mmHg 35%
    12:00 +27°C° 0 mm 1 mps 652 mmHg 34%
    13:00 +27°C° 0 mm 1 mps 651 mmHg 34%
    14:00 +27°C° 0 mm 2 mps 651 mmHg 33%
    15:00 +26°C° 0 mm 1 mps 650 mmHg 38%
    16:00 +24°C° 0 mm 1 mps 650 mmHg 43%
    17:00 +22°C° 0 mm 1 mps 649 mmHg 48%
    18:00 +21°C° 0 mm 1 mps 649 mmHg 51%
    19:00 +20°C° 0 mm 1 mps 650 mmHg 53%
    20:00 +19°C° 0 mm 1 mps 650 mmHg 56%
    21:00 +19°C° 0 mm 1 mps 650 mmHg 57%
    22:00 +19°C° 0 mm 1 mps 650 mmHg 59%
    23:00 +18°C° 0 mm 1 mps 650 mmHg 60%

    Mañana, 18 Diciembre, Martes

    Tiempo Temperatura Precipitaciones Viento Presión Humedad
    00:00 +18°C° 0 mm 1 mps 649 mmHg 62%
    01:00 +16°C° 0 mm 1 mps 649 mmHg 63%
    02:00 +15°C° 0 mm 0 mps 649 mmHg 64%
    03:00 +15°C° 0 mm 0 mps 648 mmHg 66%
    04:00 +14°C° 0 mm 0 mps 648 mmHg 67%
    05:00 +14°C° 0 mm 0 mps 648 mmHg 68%
    06:00 +16°C° 0 mm 0 mps 649 mmHg 63%
    07:00 +17°C° 0 mm 0 mps 650 mmHg 58%
    08:00 +19°C° 0 mm 0 mps 650 mmHg 53%
    09:00 +23°C° 0 mm 1 mps 650 mmHg 49%
    10:00 +25°C° 0 mm 1 mps 651 mmHg 44%
    11:00 +27°C° 0 mm 2 mps 651 mmHg 39%
    12:00 +27°C° 0 mm 2 mps 650 mmHg 38%
    13:00 +27°C° 0 mm 2 mps 649 mmHg 36%
    14:00 +28°C° 0 mm 3 mps 648 mmHg 35%
    15:00 +26°C° 0 mm 2 mps 648 mmHg 39%
    16:00 +24°C° 0 mm 2 mps 648 mmHg 44%
    17:00 +23°C° 0 mm 1 mps 648 mmHg 49%
    18:00 +22°C° 0 mm 1 mps 648 mmHg 52%
    19:00 +21°C° 0 mm 1 mps 648 mmHg 55%
    20:00 +20°C° 0 mm 1 mps 648 mmHg 59%
    21:00 +19°C° 0 mm 1 mps 648 mmHg 61%
    22:00 +19°C° 0 mm 1 mps 648 mmHg 63%
    23:00 +16°C° 0 mm 0 mps 648 mmHg 65%

    Pasado mañana, 19 Diciembre, Miércoles

    Tiempo Temperatura Precipitaciones Viento Presión Humedad
    00:00 +16°C° 0 mm 0 mps 647 mmHg 66%
    01:00 +16°C° 0 mm 0 mps 647 mmHg 67%
    02:00 +15°C° 0 mm 0 mps 647 mmHg 68%
    03:00 +15°C° 0 mm 0 mps 647 mmHg 68%
    04:00 +15°C° 0 mm 0 mps 647 mmHg 68%
    05:00 +14°C° 0 mm 0 mps 647 mmHg 67%
    06:00 +16°C° 0 mm 0 mps 647 mmHg 62%
    07:00 +17°C° 0 mm 0 mps 648 mmHg 57%
    08:00 +19°C° 0 mm 0 mps 649 mmHg 52%
    09:00 +23°C° 0 mm 1 mps 649 mmHg 48%
    10:00 +24°C° 0 mm 2 mps 649 mmHg 44%
    11:00 +26°C° 0 mm 2 mps 649 mmHg 40%
    12:00 +27°C° 0 mm 3 mps 648 mmHg 38%
    13:00 +27°C° 0 mm 3 mps 648 mmHg 37%
    14:00 +27°C° 0 mm 4 mps 647 mmHg 35%
    15:00 +25°C° 0 mm 3 mps 647 mmHg 39%
    16:00 +24°C° 0 mm 2 mps 646 mmHg 43%
    17:00 +21°C° 0 mm 2 mps 646 mmHg 47%
    18:00 +21°C° 0 mm 1 mps 647 mmHg 50%
    19:00 +20°C° 0 mm 1 mps 647 mmHg 52%
    20:00 +19°C° 0 mm 1 mps 647 mmHg 54%
    21:00 +18°C° 0 mm 1 mps 647 mmHg 55%
    22:00 +18°C° 0 mm 1 mps 647 mmHg 55%
    23:00 +16°C° 0 mm 1 mps 647 mmHg 56%

    20 Diciembre, Jueves

    Tiempo Temperatura Precipitaciones Viento Presión Humedad
    00:00 +16°C° 0 mm 1 mps 647 mmHg 56%
    01:00 +15°C° 0 mm 1 mps 647 mmHg 57%
    02:00 +15°C° 0 mm 1 mps 646 mmHg 58%
    03:00 +15°C° 0 mm 1 mps 647 mmHg 58%
    04:00 +14°C° 0 mm 1 mps 647 mmHg 59%
    05:00 +14°C° 0 mm 1 mps 647 mmHg 59%
    06:00 +16°C° 0 mm 1 mps 648 mmHg 54%
    07:00 +19°C° 0 mm 1 mps 649 mmHg 49%
    08:00 +20°C° 0 mm 1 mps 650 mmHg 44%
    09:00 +23°C° 0 mm 1 mps 650 mmHg 38%
    10:00 +25°C° 0 mm 1 mps 650 mmHg 32%
    11:00 +28°C° 0 mm 1 mps 651 mmHg 26%
    12:00 +28°C° 0 mm 1 mps 650 mmHg 24%
    13:00 +28°C° 0 mm 1 mps 650 mmHg 22%
    14:00 +29°C° 0 mm 1 mps 649 mmHg 21%
    15:00 +27°C° 0 mm 1 mps 649 mmHg 24%
    16:00 +25°C° 0 mm 1 mps 649 mmHg 28%
    17:00 +23°C° 0 mm 1 mps 648 mmHg 32%
    18:00 +21°C° 0 mm 1 mps 649 mmHg 35%
    19:00 +19°C° 0 mm 2 mps 649 mmHg 39%
    20:00 +18°C° 0 mm 2 mps 650 mmHg 42%
    21:00 +18°C° 0 mm 2 mps 650 mmHg 47%
    22:00 +17°C° 0 mm 2 mps 649 mmHg 52%
    23:00 +17°C° 0 mm 2 mps 649 mmHg 56%

    21 Diciembre, Viernes

    Tiempo Temperatura Precipitaciones Viento Presión Humedad
    00:00 +16°C° 0 mm 2 mps 649 mmHg 58%
    01:00 +16°C° 0 mm 2 mps 649 mmHg 60%
    02:00 +15°C° 0 mm 2 mps 648 mmHg 62%
    03:00 +15°C° 0 mm 2 mps 648 mmHg 63%
    04:00 +15°C° 0 mm 2 mps 648 mmHg 65%
    05:00 +14°C° 0 mm 2 mps 649 mmHg 66%
    06:00 +16°C° 0 mm 2 mps 649 mmHg 61%
    07:00 +17°C° 0 mm 2 mps 650 mmHg 56%
    08:00 +19°C° 0 mm 2 mps 651 mmHg 51%
    09:00 +20°C° 0 mm 2 mps 651 mmHg 45%
    10:00 +23°C° 0 mm 2 mps 651 mmHg 39%
    11:00 +25°C° 0 mm 2 mps 651 mmHg 33%
    12:00 +26°C° 0 mm 2 mps 651 mmHg 31%
    13:00 +27°C° 0 mm 2 mps 650 mmHg 29%
    14:00 +27°C° 0 mm 2 mps 649 mmHg 27%
    15:00 +25°C° 0 mm 2 mps 649 mmHg 32%
    16:00 +23°C° 0 mm 2 mps 649 mmHg 37%
    17:00 +20°C° 0 mm 2 mps 649 mmHg 42%
    18:00 +19°C° 0 mm 2 mps 649 mmHg 46%
    19:00 +18°C° 0 mm 2 mps 649 mmHg 49%
    20:00 +17°C° 0 mm 2 mps 649 mmHg 53%
    21:00 +16°C° 0 mm 1 mps 649 mmHg 54%
    22:00 +16°C° 0 mm 1 mps 649 mmHg 55%
    23:00 +15°C° 0 mm 1 mps 649 mmHg 57%

    22 Diciembre, Sábado

    Tiempo Temperatura Precipitaciones Viento Presión Humedad
    00:00 +15°C° 0 mm 1 mps 649 mmHg 58%
    01:00 +14°C° 0 mm 1 mps 648 mmHg 59%
    02:00 +14°C° 0 mm 1 mps 648 mmHg 60%
    03:00 +14°C° 0 mm 1 mps 648 mmHg 61%
    04:00 +13°C° 0 mm 1 mps 648 mmHg 61%
    05:00 +13°C° 0 mm 1 mps 648 mmHg 62%
    06:00 +15°C° 0 mm 1 mps 649 mmHg 57%
    07:00 +18°C° 0 mm 1 mps 650 mmHg 51%
    08:00 +17°C° 0 mm 0 mps 651 mmHg 46%
    09:00 +22°C° 0 mm 1 mps 651 mmHg 40%
    10:00 +24°C° 0 mm 1 mps 651 mmHg 34%
    11:00 +26°C° 0 mm 1 mps 651 mmHg 29%
    12:00 +27°C° 0 mm 1 mps 650 mmHg 28%
    13:00 +27°C° 0 mm 1 mps 650 mmHg 26%
    14:00 +28°C° 0 mm 1 mps 649 mmHg 25%
    15:00 +26°C° 0 mm 1 mps 649 mmHg 30%
    16:00 +24°C° 0 mm 1 mps 649 mmHg 35%
    17:00 +22°C° 0 mm 1 mps 648 mmHg 40%
    18:00 +21°C° 0 mm 1 mps 649 mmHg 42%
    19:00 +20°C° 0 mm 1 mps 649 mmHg 45%
    20:00 +19°C° 0 mm 1 mps 650 mmHg 48%
    21:00 +18°C° 0 mm 1 mps 649 mmHg 49%
    22:00 +18°C° 0 mm 1 mps 649 mmHg 50%
    23:00 +16°C° 0 mm 1 mps 649 mmHg 51%
    Mostrar más